{"data":{"norad_id":56292,"epoch":"2026-05-25T00:36:38.487744Z","epoch_age_seconds":69009,"freshness":"FRESH","line1":"1 56292U 23056G   26145.02544546  .00000190  00000+0  16431-4 0  9996","line2":"2 56292  43.0022 137.8820 0000975 280.6337  79.4405 15.27577334171716","mean_motion":15.27577334,"eccentricity":9.75e-5,"inclination_deg":43.0022,"raan_deg":137.882,"arg_perigee_deg":280.6337,"mean_anomaly_deg":79.4405,"bstar":1.6431e-5,"rev_number":17171,"period_min":94.266913232427,"perigee_km":482.38811259165,"apogee_km":483.72604543706,"semimajor_km":6861.1940790144,"source":"CELESTRAK","updated_at":"2026-05-25T13:38:17.965303Z"}}